Tracking 19794 objects as of 23-Jul-2019
HD Live streaming from Space Station
objects crossing your sky now

OSCAR 24

Track OSCAR 24 now!
10-day predictions
OSCAR 24 is classified as:


NORAD ID: 15936
Int'l Code: 1985-066B
Perigee: 1,006.1 km
Apogee: 1,260.0 km
Inclination: 90.1 °
Period: 107.8 minutes
Semi major axis: 7504 km
RCS: 1.6504 m2 (large)
Launch date: August 3, 1985
Source: United States (US)
Launch site: AIR FORCE WESTERN TEST RANGE (AFWTR)
aabbcc
Your satellite tracking list
Your tracking list is empty




NASA's NSSDC Master Catalog

Two Line Element Set (TLE):
1 15936U 85066B   19203.54881885  .00000023  00000-0  26521-4 0  9996
2 15936  90.1366  53.7446 0169208 194.8208 193.2484 13.35541234654937
Source of the keplerian elements: AFSPC